| time (UTC) | temp F | wind direction | speed knots | gust knots | rain 1hr in | rain 24hr in | rain mn in | humidity % | barometer mb |
| 20260507140319 | 46 | 268 | 1.7 | 7.8 | 0.00 | 0.00 | 0.00 | 68 | 1008.6 |
| 20260507135320 | 46 | 194 | 4.3 | 7.8 | 0.00 | 0.00 | 0.00 | 72 | 1008.6 |
| 20260507134820 | 45 | 276 | 2.6 | 11.3 | 0.00 | 0.00 | 0.00 | 77 | 1008.7 |
| 20260507133820 | 46 | 266 | 3.5 | 7.0 | 0.00 | 0.00 | 0.00 | 78 | 1008.5 |
| 20260507132819 | 45 | 291 | 1.7 | 7.0 | 0.00 | 0.00 | 0.00 | 77 | 1008.5 |
| 20260507132320 | 45 | 328 | 4.3 | 7.8 | 0.00 | 0.00 | 0.00 | 79 | 1008.5 |
| 20260507131319 | 44 | 309 | 4.3 | 12.2 | 0.00 | 0.00 | 0.00 | 83 | 1008.7 |
| 20260507130820 | 44 | 296 | 4.3 | 10.4 | 0.00 | 0.00 | 0.00 | 85 | 1008.6 |
| 20260507125820 | 44 | 236 | 2.6 | 7.0 | 0.00 | 0.00 | 0.00 | 88 | 1008.7 |
| 20260507125319 | 44 | 218 | 3.5 | 8.7 | 0.00 | 0.00 | 0.00 | 85 | 1008.7 |
| 20260507124819 | 44 | 268 | 2.6 | 8.7 | 0.00 | 0.00 | 0.00 | 88 | 1008.6 |
| 20260507123819 | 44 | 272 | 1.7 | 4.3 | 0.00 | 0.00 | 0.00 | 95 | 1008.4 |
| 20260507122820 | 43 | 316 | 0.9 | 1.7 | 0.00 | 0.00 | 0.00 | 98 | 1008.5 |
| 20260507122320 | 42 | 288 | 0.9 | 1.7 | 0.00 | 0.00 | 0.00 | 98 | 1008.5 |
| 20260507120820 | 41 | 27 | 0.0 | 7.8 | 0.00 | 0.00 | 0.00 | 99 | 1008.3 |
| 20260507115820 | 41 | 333 | 0.0 | 0.9 | 0.00 | 0.00 | 0.00 | 99 | 1008.3 |
| 20260507114821 | 41 | 341 | 0.9 | 1.7 | 0.00 | 0.00 | 0.00 | 99 | 1008.2 |
| 20260507114320 | 41 | 305 | 0.9 | 1.7 | 0.00 | 0.00 | 0.00 | 99 | 1008.3 |
| 20260507113819 | 41 | 42 | 0.0 | 1.7 | 0.00 | 0.00 | 0.00 | 99 | 1008.2 |
| 20260507113319 | 41 | 315 | 0.9 | 1.7 | 0.00 | 0.00 | 0.00 | 99 | 1008.2 |
| 20260507112820 | 41 | 319 | 0.0 | 0.9 | 0.00 | 0.00 | 0.00 | 99 | 1008.2 |
| 20260507111819 | 41 | 319 | 0.0 | 0.9 | 0.00 | 0.00 | 0.00 | 99 | 1008.2 |
| 20260507111320 | 41 | 319 | 0.0 | 0.9 | 0.00 | 0.00 | 0.00 | 99 | 1008.2 |
| 20260507105820 | 40 | 319 | 0.0 | 0.9 | 0.00 | 0.00 | 0.00 | 99 | 1008.1 |
| 20260507105320 | 40 | 319 | 0.0 | 0.9 | 0.00 | 0.00 | 0.00 | 99 | 1008.0 |
| 20260507104320 | 41 | 94 | 0.0 | 1.7 | 0.00 | 0.00 | 0.00 | 98 | 1008.1 |
| 20260507103819 | 41 | 186 | 0.9 | 1.7 | 0.00 | 0.00 | 0.00 | 98 | 1008.1 |
| 20260507103320 | 40 | 2 | 0.0 | 0.9 | 0.00 | 0.00 | 0.00 | 99 | 1008.1 |
| 20260507102819 | 41 | 339 | 0.0 | 2.6 | 0.00 | 0.00 | 0.00 | 98 | 1008.0 |
| 20260507102320 | 41 | 126 | 1.7 | 2.6 | 0.00 | 0.00 | 0.00 | 98 | 1008.1 |
| 20260507101819 | 40 | 113 | 0.9 | 1.7 | 0.00 | 0.00 | 0.00 | 99 | 1008.1 |
| 20260507101319 | 41 | 5 | 0.0 | 0.0 | 0.00 | 0.00 | 0.00 | 99 | 1008.0 |
| 20260507100820 | 41 | 7 | 0.0 | 2.6 | 0.00 | 0.00 | 0.00 | 98 | 1008.0 |
| 20260507100320 | 41 | 166 | 1.7 | 4.3 | 0.00 | 0.00 | 0.00 | 97 | 1007.9 |
| 20260507095320 | 40 | 164 | 1.7 | 2.6 | 0.00 | 0.00 | 0.00 | 99 | 1007.9 |
| 20260507094821 | 40 | 121 | 1.7 | 2.6 | 0.00 | 0.00 | 0.00 | 99 | 1007.8 |
| 20260507094320 | 40 | 116 | 1.7 | 2.6 | 0.00 | 0.00 | 0.00 | 99 | 1007.7 |
| 20260507093820 | 40 | 132 | 2.6 | 4.3 | 0.00 | 0.00 | 0.00 | 99 | 1008.1 |
| 20260507093320 | 40 | 124 | 2.6 | 4.3 | 0.00 | 0.00 | 0.00 | 99 | 1008.4 |
| 20260507092321 | 39 | 130 | 0.9 | 0.9 | 0.00 | 0.00 | 0.00 | 99 | 1008.1 |
| 20260507091820 | 39 | 86 | 0.9 | 1.7 | 0.00 | 0.00 | 0.00 | 99 | 1008.2 |
| 20260507091322 | 38 | 230 | 0.0 | 12.2 | 0.00 | 0.00 | 0.00 | 99 | 1008.0 |